Rémy Lacroix

Olheiro-Chefe - FC Metz
3 Fev 2028
Quinta-feira
Processo

Personalidade

Adaptabilidade (14) Ambição (9) Controvérsia (18) Lealdade (12) Pressão (10) Profissionalismo (16) Espírito Esportivo (1) Temperamento (14)

Perfil

Estilo de Treinamento Democrático
Licença Continental C
Determinação 4
Gestão de Pessoas 12
Motivação 7
Disciplina 8
Satisfação no Trabalho
100%
Fadiga
0%
Função Olheiro-Chefe
Salário 48.9K p/s
Contrato 14.03.2029

Desempenho

Comportamento Bom
Eficácia do Treinamento
44%
Desenvolvimento do Jogador
55%
Prevenção de Lesões
65%
Implementação Tática
50%

Eventos Recentes

Participou de uma reunião de recrutamento 7d atrás
Recomendou um alvo de transferência 7d atrás
Participando de desenvolvimento profissional 14d atrás
Participou de uma reunião de recrutamento 14d atrás
Recomendou um alvo de transferência 14d atrás
Participando de desenvolvimento profissional 14d atrás
Participando de desenvolvimento profissional 14d atrás
Participando de desenvolvimento profissional 14d atrás

Monitorando agora

62
Jogador Clube Status Habilidade Confiança Observado Última observação Último voto
Pierre Lemonnier Red Star Ativo 110 / 110 51% 1 31.01.2028 -
Chris Ramos Botafogo Ativo 124 / 105 40% 1 08.01.2028 -
Daniel Deac Hajduk Split Perdido 137 / 140 66% 1 01.01.2028 -
Donis Avdijaj Getafe Ativo 117 / 117 66% 1 01.01.2028 Aprovar
Mattia Puzone Siracusa Ativo 94 / 96 40% 1 10.08.2027 -
Luís Guilherme Sporting CP Ativo 144 / 129 40% 1 09.08.2027 -
Nathan Doualla Canon Yaounde Ativo 90 / 102 40% 1 09.08.2027 -
Nicolás Barros Schelotto Gimnasia La Plata Ativo 114 / 130 40% 1 08.08.2027 -
Wiler Garzón Bogota Ativo 70 / 64 40% 1 08.08.2027 -
Sipho Ngqakabana AS Police Ativo 68 / 77 40% 2 06.08.2027 -
Ahmad Lamido Wikki Tourists Ativo 88 / 106 40% 1 06.08.2027 -
Wilfred Correa Caracas Ativo 100 / 84 40% 1 05.08.2027 -
Pablo Suárez Rentistas Ativo 82 / 110 40% 2 04.08.2027 -
Joel Canchimbo Barranquilla Ativo 114 / 94 40% 1 04.08.2027 -
Sascha Britschgi Fiorentina Ativo 113 / 117 40% 1 03.08.2027 -
Mateo Aguiar Defensa y Justicia Ativo 128 / 102 40% 1 02.08.2027 -
Kaick FC Dallas Ativo 107 / 111 40% 1 02.08.2027 -
Bariş Kalaycı Fatih Karagumruk Ativo 115 / 126 40% 2 25.07.2027 -
Francisco Triver River Plate Ativo 88 / 97 40% 1 25.07.2027 -
Elie N'Gatta Sochaux Ativo 90 / 96 40% 1 24.07.2027 -
Preston Fearon West Ham United Ativo 106 / 114 40% 1 23.07.2027 -
Martim Cunha Porto Ativo 99 / 119 40% 1 23.07.2027 -
Marco Oroná Antofagasta Ativo 81 / 110 40% 1 21.07.2027 -
Marius Courcoul Olympique de Marseille Ativo 113 / 113 40% 2 19.07.2027 -
Isaac England Shrewsbury Town Ativo 82 / 107 40% 1 19.07.2027 -
Tiago Freitas Benfica Ativo 116 / 114 40% 2 13.07.2027 -
Joseph Opoku Swansea City Ativo 107 / 115 40% 1 13.07.2027 -
Duarte Cunha Porto Ativo 89 / 97 40% 1 12.07.2027 -
João Abreu Porto Ativo 86 / 93 40% 1 12.07.2027 -
Ibrahim Sabiu Bendel Insurance Ativo 103 / 75 40% 1 07.07.2027 -
Alphadjo Cissé Hellas Verona Ativo 129 / 126 40% 1 07.07.2027 -
Mauricio Amaro Atlanta United FC Ativo 111 / 136 40% 1 05.07.2027 -
Olti Hyseni Brondby Ativo 114 / 122 40% 1 05.07.2027 -
Kian Best Eibar Ativo 89 / 113 40% 1 03.07.2027 -
Mads Abrahamsen Saturn Ativo 82 / 92 40% 1 03.07.2027 -
Yassine Khalifi Charleroi Ativo 102 / 103 40% 1 02.07.2027 -
Borna Knezović Casarano Ativo 98 / 121 40% 2 01.07.2027 -
Mike Themsen Randers Ativo 106 / 126 40% 1 01.07.2027 -
Pedro Borges Exeter City Ativo 91 / 80 40% 1 30.06.2027 -
Mateo Durand General Diaz Ativo 82 / 71 40% 1 30.06.2027 -
Milan Roganović Partizan Ativo 110 / 110 40% 1 26.06.2027 -
Mfundo Vilakazi Kaizer Chiefs Ativo 122 / 141 40% 1 24.06.2027 -
Paulo Cardoso Sporting CP Ativo 93 / 103 40% 1 22.06.2027 -
Ali Youssef FC Nantes Ativo 127 / 133 51% 1 21.06.2027 -
Rodrygo Rangel Veracruz Ativo 138 / 123 40% 1 30.01.2027 -
Luis Palma Lech Ativo 123 / 129 40% 1 30.01.2027 -
Lassina Traoré Shakhtar Ativo 115 / 109 40% 1 28.01.2027 -
Iqraam Rayners Mamelodi Sundowns Ativo 153 / 113 40% 1 24.01.2027 -
Hugo Cuypers Monterrey Ativo 119 / 139 40% 1 24.01.2027 -
Jhojan Julio Queretaro Ativo 129 / 136 40% 1 22.01.2027 -
Myron van Brederode KV Mechelen Ativo 126 / 111 40% 2 20.01.2027 -
Ismael Díaz Leon Ativo 109 / 147 40% 1 20.01.2027 -
Erik Prekop Gornik Zabrze Ativo 130 / 114 40% 1 19.01.2027 -
Grejohn Kyei Standard Liege Ativo 130 / 135 40% 1 18.01.2027 -
Emmanuel Dennis Brondby Ativo 117 / 126 40% 2 17.01.2027 -
Juninho Pumas UNAM Ativo 140 / 127 40% 1 10.01.2027 -
Moctar Diop KAA Gent Ativo 104 / 118 40% 3 09.01.2027 -
Andrija Bulatović RC Lens Ativo 128 / 123 51% 1 31.08.2026 -
Ibrahim Kanté Stade Brestois Ativo 88 / 83 40% 1 26.08.2026 -
Thiago Deangelis Quilmes Ativo 79 / 71 40% 1 19.08.2026 -
Jordi Kuange FC Nantes Ativo 100 / 90 40% 1 17.08.2026 -
Dilan Godoy Vélez Ativo 123 / 110 40% 1 08.08.2026 -